Time,TemperatureF,DewpointF,PressureIn,WindDirection,WindDirectionDegrees,WindSpeedMPH,WindSpeedGustMPH,Humidity,HourlyPrecipIn,Conditions,Clouds,dailyrainin,SoftwareType,DateUTC
2013-03-25 00:32:00,24.0,23.0,-100.00,North,0,17.0,24.0,99,0.00,,,0.01,,2013-03-25 05:32:00,
2013-03-25 00:42:00,24.0,23.0,-100.00,North,0,19.0,23.0,99,0.00,,,0.01,,2013-03-25 05:42:00,
2013-03-25 00:52:00,24.0,23.0,-100.00,North,0,20.0,26.0,99,0.00,,,0.01,,2013-03-25 05:52:00,
2013-03-25 01:02:00,24.0,23.0,-100.00,North,0,16.0,27.0,99,0.00,,,0.01,,2013-03-25 06:02:00,
2013-03-25 01:12:00,24.0,23.0,-100.00,North,0,18.0,22.0,99,0.00,,,0.01,,2013-03-25 06:12:00,
2013-03-25 01:22:00,24.0,23.0,-100.00,North,355,17.0,22.0,99,0.00,,,0.01,,2013-03-25 06:22:00,
2013-03-25 01:32:00,24.0,23.0,-100.00,North,355,17.0,26.0,99,0.00,,,0.01,,2013-03-25 06:32:00,
2013-03-25 01:42:00,24.0,23.0,-100.00,North,350,17.0,22.0,99,0.00,,,0.01,,2013-03-25 06:42:00,
2013-03-25 01:52:00,23.0,23.0,-100.00,North,355,19.0,22.0,99,0.00,,,0.01,,2013-03-25 06:52:00,
2013-03-25 02:02:00,23.0,23.0,-100.00,North,350,18.0,24.0,99,0.00,,,0.01,,2013-03-25 07:02:00,
2013-03-25 02:12:00,24.0,23.0,-100.00,NNW,345,17.0,22.0,99,0.00,,,0.01,,2013-03-25 07:12:00,
2013-03-25 02:22:00,24.0,23.0,-100.00,North,350,15.0,21.0,99,0.00,,,0.01,,2013-03-25 07:22:00,
2013-03-25 02:32:00,24.0,23.0,-100.00,North,350,17.0,23.0,99,0.00,,,0.01,,2013-03-25 07:32:00,
2013-03-25 02:42:00,24.0,23.0,-100.00,North,350,15.0,22.0,99,0.00,,,0.01,,2013-03-25 07:42:00,
2013-03-25 02:52:00,24.0,23.0,-100.00,North,350,17.0,20.0,99,0.00,,,0.01,,2013-03-25 07:52:00,
2013-03-25 03:02:00,24.0,23.0,-100.00,North,355,17.0,20.0,99,0.00,,,0.01,,2013-03-25 08:02:00,
2013-03-25 03:12:00,24.0,23.0,-100.00,North,355,16.0,21.0,99,0.00,,,0.01,,2013-03-25 08:12:00,
2013-03-25 03:22:00,24.0,23.0,-100.00,North,350,15.0,19.0,99,0.00,,,0.01,,2013-03-25 08:22:00,
2013-03-25 03:32:00,24.0,23.0,-100.00,North,350,15.0,20.0,99,0.00,,,0.01,,2013-03-25 08:32:00,
2013-03-25 03:42:00,24.0,23.0,-100.00,North,355,18.0,21.0,99,0.00,,,0.01,,2013-03-25 08:42:00,
2013-03-25 03:52:00,24.0,23.0,-100.00,North,355,17.0,22.0,99,0.00,,,0.01,,2013-03-25 08:52:00,
2013-03-25 04:02:00,24.0,23.0,-100.00,North,355,15.0,19.0,99,0.00,,,0.01,,2013-03-25 09:02:00,
2013-03-25 04:12:00,24.0,23.0,-100.00,North,0,17.0,22.0,99,0.00,,,0.01,,2013-03-25 09:12:00,
2013-03-25 04:22:00,24.0,23.0,-100.00,North,0,18.0,21.0,99,0.00,,,0.01,,2013-03-25 09:22:00,
2013-03-25 04:33:00,24.0,23.0,-100.00,North,0,16.0,22.0,99,0.00,,,0.01,,2013-03-25 09:33:00,
2013-03-25 04:42:00,23.0,23.0,-100.00,North,0,16.0,20.0,99,0.00,,,0.01,,2013-03-25 09:42:00,
2013-03-25 04:52:00,23.0,23.0,-100.00,North,0,14.0,19.0,99,0.00,,,0.01,,2013-03-25 09:52:00,
2013-03-25 05:03:00,23.0,23.0,-100.00,North,0,13.0,20.0,99,0.00,,,0.01,,2013-03-25 10:03:00,
2013-03-25 05:12:00,23.0,23.0,-100.00,North,0,14.0,17.0,99,0.00,,,0.01,,2013-03-25 10:12:00,
2013-03-25 05:22:00,23.0,23.0,-100.00,North,0,14.0,17.0,99,0.00,,,0.00,,2013-03-25 10:22:00,
2013-03-25 05:32:00,24.0,23.0,-100.00,North,0,12.0,19.0,99,0.00,,,0.00,,2013-03-25 10:32:00,
2013-03-25 05:42:00,24.0,23.0,-100.00,North,350,13.0,17.0,99,0.00,,,0.00,,2013-03-25 10:42:00,
2013-03-25 05:53:00,24.0,23.0,-100.00,North,355,14.0,17.0,99,0.00,,,0.00,,2013-03-25 10:53:00,
2013-03-25 06:03:00,23.0,23.0,-100.00,North,350,13.0,19.0,99,0.00,,,0.00,,2013-03-25 11:03:00,
2013-03-25 06:12:00,23.0,23.0,-100.00,North,350,16.0,19.0,99,0.00,,,0.00,,2013-03-25 11:12:00,
2013-03-25 06:23:00,23.0,23.0,-100.00,North,355,14.0,19.0,99,0.00,,,0.00,,2013-03-25 11:23:00,
2013-03-25 06:32:00,23.0,23.0,-100.00,North,355,14.0,18.0,99,0.00,,,0.00,,2013-03-25 11:32:00,
2013-03-25 06:42:00,23.0,23.0,-100.00,North,355,12.0,17.0,99,0.00,,,0.00,,2013-03-25 11:42:00,
2013-03-25 06:52:00,23.0,23.0,-100.00,North,350,15.0,18.0,99,0.00,,,0.00,,2013-03-25 11:52:00,
2013-03-25 07:23:00,22.0,21.0,-100.00,North,355,15.0,20.0,99,0.00,,,0.00,,2013-03-25 12:23:00,
2013-03-25 07:32:00,22.0,21.0,-100.00,North,350,14.0,18.0,99,0.00,,,0.00,,2013-03-25 12:32:00,
2013-03-25 07:42:00,22.0,21.0,-100.00,North,355,16.0,20.0,99,0.00,,,0.00,,2013-03-25 12:42:00,
2013-03-25 07:52:00,22.0,21.0,-100.00,North,355,16.0,20.0,99,0.00,,,0.00,,2013-03-25 12:52:00,
2013-03-25 08:02:00,22.0,21.0,-100.00,North,355,17.0,21.0,99,0.00,,,0.00,,2013-03-25 13:02:00,
2013-03-25 09:03:00,23.0,23.0,-100.00,North,355,16.0,21.0,99,0.00,,,0.00,,2013-03-25 14:03:00,
2013-03-25 09:12:00,23.0,23.0,-100.00,North,0,16.0,21.0,99,0.00,,,0.00,,2013-03-25 14:12:00,
2013-03-25 09:22:00,24.0,23.0,-100.00,North,355,17.0,21.0,99,0.00,,,0.00,,2013-03-25 14:22:00,
2013-03-25 09:52:00,25.0,25.0,-100.00,North,0,15.0,21.0,99,0.00,,,0.00,,2013-03-25 14:52:00,
2013-03-25 10:02:00,25.0,25.0,-100.00,North,0,16.0,21.0,99,0.00,,,0.00,,2013-03-25 15:02:00,
2013-03-25 10:12:00,26.0,25.0,-100.00,North,355,17.0,22.0,99,0.00,,,0.00,,2013-03-25 15:12:00,
2013-03-25 10:42:00,27.0,27.0,-100.00,North,355,17.0,24.0,98,0.00,,,0.00,,2013-03-25 15:42:00,
2013-03-25 10:53:00,27.0,27.0,-100.00,North,0,20.0,26.0,97,0.00,,,0.00,,2013-03-25 15:53:00,
2013-03-25 11:03:00,28.0,27.0,-100.00,North,0,17.0,22.0,96,0.00,,,0.00,,2013-03-25 16:03:00,
2013-03-25 11:12:00,28.0,27.0,-100.00,North,0,18.0,22.0,95,0.00,,,0.00,,2013-03-25 16:12:00,
2013-03-25 11:23:00,28.0,27.0,-100.00,North,5,22.0,26.0,94,0.00,,,0.00,,2013-03-25 16:23:00,
2013-03-25 11:33:00,28.0,27.0,-100.00,North,0,19.0,24.0,94,0.00,,,0.00,,2013-03-25 16:33:00,
2013-03-25 11:42:00,28.0,27.0,-100.00,North,0,19.0,24.0,93,0.00,,,0.00,,2013-03-25 16:42:00,
2013-03-25 11:52:00,28.0,27.0,-100.00,North,355,18.0,23.0,93,0.00,,,0.00,,2013-03-25 16:52:00,
2013-03-25 12:02:00,29.0,27.0,-100.00,North,0,17.0,24.0,93,0.00,,,0.00,,2013-03-25 17:02:00,
2013-03-25 12:12:00,29.0,27.0,-100.00,North,0,18.0,23.0,91,0.00,,,0.00,,2013-03-25 17:12:00,
2013-03-25 12:23:00,30.0,28.0,-100.00,North,0,14.0,23.0,92,0.00,,,0.00,,2013-03-25 17:23:00,
2013-03-25 12:32:00,30.0,28.0,-100.00,North,0,17.0,23.0,91,0.00,,,0.00,,2013-03-25 17:32:00,
2013-03-25 12:42:00,30.0,28.0,-100.00,North,0,17.0,24.0,90,0.00,,,0.00,,2013-03-25 17:42:00,
2013-03-25 12:52:00,30.0,27.0,-100.00,North,0,16.0,24.0,91,0.00,,,0.00,,2013-03-25 17:52:00,
2013-03-25 13:03:00,30.0,27.0,-100.00,North,0,21.0,24.0,88,0.00,,,0.00,,2013-03-25 18:03:00,
2013-03-25 13:12:00,31.0,28.0,-100.00,North,5,17.0,25.0,88,0.00,,,0.00,,2013-03-25 18:12:00,
2013-03-25 13:22:00,32.0,28.0,-100.00,North,0,17.0,26.0,89,0.00,,,0.00,,2013-03-25 18:22:00,
2013-03-25 13:32:00,31.0,28.0,-100.00,North,0,19.0,23.0,88,0.00,,,0.00,,2013-03-25 18:32:00,
2013-03-25 13:42:00,32.0,28.0,-100.00,North,350,17.0,22.0,87,0.00,,,0.00,,2013-03-25 18:42:00,
2013-03-25 13:52:00,31.0,28.0,-100.00,North,0,18.0,24.0,86,0.00,,,0.00,,2013-03-25 18:52:00,
2013-03-25 14:03:00,32.0,28.0,-100.00,North,0,18.0,23.0,85,0.00,,,0.00,,2013-03-25 19:03:00,
2013-03-25 14:12:00,32.0,28.0,-100.00,North,0,17.0,23.0,85,0.00,,,0.00,,2013-03-25 19:12:00,
2013-03-25 14:22:00,32.0,28.0,-100.00,North,5,19.0,23.0,84,0.00,,,0.00,,2013-03-25 19:22:00,
2013-03-25 14:33:00,32.0,28.0,-100.00,North,0,17.0,24.0,82,0.00,,,0.00,,2013-03-25 19:33:00,
2013-03-25 14:42:00,32.0,28.0,-100.00,North,0,19.0,24.0,82,0.00,,,0.00,,2013-03-25 19:42:00,
2013-03-25 14:52:00,32.0,27.0,-100.00,North,0,17.0,22.0,81,0.00,,,0.00,,2013-03-25 19:52:00,
2013-03-25 15:02:00,32.0,27.0,-100.00,North,350,17.0,24.0,81,0.00,,,0.00,,2013-03-25 20:02:00,
2013-03-25 15:12:00,32.0,27.0,-100.00,North,355,17.0,26.0,81,0.00,,,0.00,,2013-03-25 20:12:00,
2013-03-25 15:22:00,32.0,27.0,-100.00,North,0,16.0,22.0,79,0.00,,,0.00,,2013-03-25 20:22:00,
2013-03-25 15:32:00,32.0,27.0,-100.00,North,0,14.0,25.0,80,0.00,,,0.00,,2013-03-25 20:32:00,
2013-03-25 15:42:00,32.0,27.0,-100.00,North,0,16.0,22.0,80,0.00,,,0.00,,2013-03-25 20:42:00,
2013-03-25 15:52:00,33.0,28.0,-100.00,North,0,16.0,21.0,81,0.00,,,0.00,,2013-03-25 20:52:00,
2013-03-25 16:02:00,33.0,27.0,-100.00,North,0,17.0,21.0,80,0.00,,,0.00,,2013-03-25 21:02:00,
2013-03-25 16:12:00,32.0,27.0,-100.00,North,5,17.0,20.0,81,0.00,,,0.00,,2013-03-25 21:12:00,
2013-03-25 16:22:00,33.0,28.0,-100.00,North,355,16.0,21.0,81,0.00,,,0.00,,2013-03-25 21:22:00,
2013-03-25 16:33:00,32.0,27.0,-100.00,NNE,15,15.0,22.0,80,0.00,,,0.00,,2013-03-25 21:33:00,
2013-03-25 16:42:00,32.0,27.0,-100.00,North,0,14.0,22.0,79,0.00,,,0.00,,2013-03-25 21:42:00,
2013-03-25 16:52:00,32.0,27.0,-100.00,North,355,17.0,22.0,80,0.00,,,0.00,,2013-03-25 21:52:00,
2013-03-25 17:03:00,32.0,27.0,-100.00,North,0,14.0,19.0,80,0.00,,,0.00,,2013-03-25 22:03:00,
2013-03-25 17:12:00,31.0,27.0,-100.00,North,355,14.0,21.0,80,0.00,,,0.00,,2013-03-25 22:12:00,
2013-03-25 17:23:00,32.0,27.0,-100.00,North,0,17.0,21.0,79,0.00,,,0.00,,2013-03-25 22:23:00,
2013-03-25 17:32:00,32.0,27.0,-100.00,North,0,18.0,22.0,81,0.00,,,0.00,,2013-03-25 22:32:00,
2013-03-25 17:42:00,31.0,27.0,-100.00,North,350,16.0,21.0,82,0.00,,,0.00,,2013-03-25 22:42:00,
2013-03-25 17:52:00,31.0,27.0,-100.00,North,350,19.0,26.0,82,0.00,,,0.00,,2013-03-25 22:52:00,
2013-03-25 18:02:00,30.0,27.0,-100.00,North,350,17.0,24.0,83,0.00,,,0.00,,2013-03-25 23:02:00,
2013-03-25 18:12:00,30.0,25.0,-100.00,North,0,20.0,23.0,81,0.00,,,0.00,,2013-03-25 23:12:00,
2013-03-25 18:22:00,29.0,25.0,-100.00,North,350,16.0,22.0,85,0.00,,,0.00,,2013-03-25 23:22:00,
2013-03-25 18:32:00,30.0,25.0,-100.00,North,350,17.0,24.0,84,0.00,,,0.00,,2013-03-25 23:32:00,
2013-03-25 18:42:00,30.0,27.0,-100.00,North,355,18.0,24.0,83,0.00,,,0.00,,2013-03-25 23:42:00,
2013-03-25 18:52:00,29.0,25.0,-100.00,North,350,19.0,24.0,82,0.00,,,0.00,,2013-03-25 23:52:00,
2013-03-25 19:02:00,29.0,25.0,-100.00,North,355,19.0,26.0,84,0.00,,,0.00,,2013-03-26 00:02:00,
2013-03-25 19:12:00,29.0,25.0,-100.00,North,0,17.0,26.0,84,0.00,,,0.00,,2013-03-26 00:12:00,
2013-03-25 19:22:00,29.0,25.0,-100.00,NNW,340,19.0,26.0,85,0.00,,,0.00,,2013-03-26 00:22:00,
2013-03-25 19:32:00,28.0,25.0,-100.00,North,350,19.0,24.0,85,0.00,,,0.00,,2013-03-26 00:32:00,
2013-03-25 19:42:00,28.0,25.0,-100.00,North,350,19.0,27.0,86,0.00,,,0.00,,2013-03-26 00:42:00,
2013-03-25 19:52:00,27.0,23.0,-100.00,North,350,19.0,26.0,86,0.00,,,0.00,,2013-03-26 00:52:00,
2013-03-25 20:02:00,27.0,23.0,-100.00,North,0,21.0,27.0,87,0.00,,,0.00,,2013-03-26 01:02:00,
2013-03-25 20:12:00,26.0,23.0,-100.00,North,355,20.0,25.0,88,0.00,,,0.00,,2013-03-26 01:12:00,
2013-03-25 20:22:00,26.0,23.0,-100.00,North,350,18.0,25.0,89,0.00,,,0.00,,2013-03-26 01:22:00,
2013-03-25 20:32:00,26.0,23.0,-100.00,North,350,20.0,25.0,89,0.00,,,0.00,,2013-03-26 01:32:00,
2013-03-25 20:42:00,26.0,23.0,-100.00,North,355,21.0,24.0,89,0.00,,,0.00,,2013-03-26 01:42:00,
2013-03-25 20:52:00,25.0,23.0,-100.00,North,350,17.0,21.0,92,0.00,,,0.00,,2013-03-26 01:52:00,
2013-03-25 21:02:00,25.0,23.0,-100.00,NNW,345,20.0,24.0,92,0.00,,,0.00,,2013-03-26 02:02:00,
2013-03-25 21:12:00,25.0,23.0,-100.00,North,0,21.0,27.0,92,0.00,,,0.00,,2013-03-26 02:12:00,
2013-03-25 21:22:00,24.0,23.0,-100.00,NNW,345,14.0,22.0,93,0.00,,,0.00,,2013-03-26 02:22:00,
2013-03-25 21:32:00,24.0,21.0,-100.00,North,350,21.0,26.0,91,0.00,,,0.00,,2013-03-26 02:32:00,
2013-03-25 21:42:00,24.0,21.0,-100.00,North,350,17.0,22.0,91,0.00,,,0.00,,2013-03-26 02:42:00,
2013-03-25 21:52:00,24.0,21.0,-100.00,North,350,16.0,22.0,90,0.00,,,0.00,,2013-03-26 02:52:00,
2013-03-25 22:02:00,23.0,21.0,-100.00,NNW,345,16.0,24.0,92,0.00,,,0.00,,2013-03-26 03:02:00,
2013-03-25 22:12:00,23.0,21.0,-100.00,North,355,16.0,21.0,93,0.00,,,0.00,,2013-03-26 03:12:00,
2013-03-25 22:22:00,23.0,21.0,-100.00,North,350,17.0,19.0,93,0.00,,,0.00,,2013-03-26 03:22:00,
2013-03-25 22:33:00,23.0,21.0,-100.00,NNW,345,16.0,21.0,93,0.00,,,0.00,,2013-03-26 03:33:00,
2013-03-25 22:42:00,23.0,21.0,-100.00,NNW,345,16.0,19.0,94,0.00,,,0.00,,2013-03-26 03:42:00,
2013-03-25 22:52:00,22.0,21.0,-100.00,NNW,345,14.0,21.0,95,0.00,,,0.00,,2013-03-26 03:52:00,
2013-03-25 23:03:00,22.0,21.0,-100.00,North,350,15.0,18.0,95,0.00,,,0.00,,2013-03-26 04:03:00,
2013-03-25 23:12:00,22.0,21.0,-100.00,NNW,345,15.0,18.0,96,0.00,,,0.00,,2013-03-26 04:12:00,
2013-03-25 23:23:00,22.0,21.0,-100.00,North,350,13.0,17.0,97,0.00,,,0.00,,2013-03-26 04:23:00,
2013-03-25 23:32:00,22.0,21.0,-100.00,North,350,12.0,17.0,97,0.00,,,0.00,,2013-03-26 04:32:00,
2013-03-25 23:43:00,22.0,21.0,-100.00,NNW,345,14.0,17.0,97,0.00,,,0.00,,2013-03-26 04:43:00,
2013-03-25 23:52:00,22.0,21.0,-100.00,North,350,12.0,22.0,97,0.00,,,0.00,,2013-03-26 04:52:00,